WXM80 ListenWXM80 Stop

You find our weather info also at:

UK Metoffice

WeatherCloud

Weather Underground

Northeastern Weather Network

AWEKAS

Citizen Weather Observer Program (CWOP)

HAMweather, WeatherForYou, PWS Weather


Weather Underground History page Text

Daily Summary for June 28, 2017 Units:  English    Metric   Both
« Previous Day
Next Day »
Daily Weekly Monthly Yearly Custom
  High: Low: Average:
Temperature: 84.3 °F 58.7 °F 70.6 °F
Dew Point: 62.9 °F 52.7 °F 56.9 °F
Humidity: 93 % 37 % 65 %
Wind Speed: 7.3 mph 0.0 mph 1.7 mph
Wind Gust: 13.0 mph - -
Wind:- - WSW
Pressure: 30.08 in 29.97 in -
Precipitation: 0.00 in    
Historical Graphs
 
 
Tabular Data for June 28, 2017
Time Temperature Dew Point Pressure Wind Wind Speed Wind Gust Humidity Rainfall Rate (Hourly)
00:01 62.3 °F 57.4 °F 29.97 in Calm     84 % 0.00 in
00:06 62.1 °F 57.2 °F 29.97 in Calm     84 % 0.00 in
00:11 62.0 °F 57.1 °F 29.97 in Calm     84 % 0.00 in
00:16 61.8 °F 56.9 °F 29.97 in Calm     84 % 0.00 in
00:21 61.6 °F 57.0 °F 29.97 in Calm     85 % 0.00 in
00:26 61.4 °F 56.8 °F 29.97 in Calm     85 % 0.00 in
00:31 61.3 °F 57.1 °F 29.97 in Calm     86 % 0.00 in
00:36 61.1 °F 56.9 °F 29.97 in Calm     86 % 0.00 in
00:41 61.0 °F 56.8 °F 29.97 in Calm     86 % 0.00 in
00:46 60.9 °F 56.7 °F 29.97 in Calm     86 % 0.00 in
00:51 60.8 °F 56.6 °F 29.97 in Calm     86 % 0.00 in
00:56 60.7 °F 56.5 °F 29.97 in Calm     86 % 0.00 in
01:01 60.6 °F 56.7 °F 29.97 in Calm     87 % 0.00 in
01:06 60.5 °F 56.6 °F 29.98 in Calm     87 % 0.00 in
01:11 60.4 °F 56.5 °F 29.97 in Calm     87 % 0.00 in
01:16 60.3 °F 56.4 °F 29.97 in Calm     87 % 0.00 in
01:21 60.2 °F 56.3 °F 29.97 in Calm     87 % 0.00 in
01:26 60.0 °F 56.1 °F 29.97 in Calm     87 % 0.00 in
01:31 59.9 °F 56.0 °F 29.97 in Calm     87 % 0.00 in
01:36 59.8 °F 55.9 °F 29.97 in Calm     87 % 0.00 in
01:41 59.6 °F 55.7 °F 29.97 in Calm     87 % 0.00 in
01:46 59.5 °F 55.6 °F 29.98 in Calm     87 % 0.00 in
01:51 59.4 °F 55.8 °F 29.98 in Calm     88 % 0.00 in
01:56 59.2 °F 55.3 °F 29.98 in Calm     87 % 0.00 in
02:01 59.1 °F 55.5 °F 29.97 in Calm     88 % 0.00 in
02:06 59.0 °F 55.1 °F 29.98 in Calm     87 % 0.00 in
02:11 58.9 °F 55.4 °F 29.98 in Calm     88 % 0.00 in
02:16 58.9 °F 55.7 °F 29.98 in Calm     89 % 0.00 in
02:21 58.8 °F 55.6 °F 29.98 in Calm     89 % 0.00 in
02:22 58.8 °F 55.6 °F 29.98 in Calm     89 % 0.00 in
02:27 58.8 °F 55.6 °F 29.99 in Calm     89 % 0.00 in
02:32 58.7 °F 55.8 °F 29.99 in Calm     90 % 0.00 in
02:37 58.7 °F 55.8 °F 29.99 in Calm     90 % 0.00 in
02:42 58.8 °F 56.2 °F 29.99 in Calm     91 % 0.00 in
02:47 58.8 °F 56.5 °F 29.99 in SW 0.2 mph 1.2 mph 92 % 0.00 in
02:52 58.9 °F 56.6 °F 29.99 in SW 0.8 mph 2.3 mph 92 % 0.00 in
02:57 59.0 °F 56.7 °F 29.99 in SW 0.3 mph 1.2 mph 92 % 0.00 in
03:02 59.1 °F 57.1 °F 29.99 in SW 0.8 mph 2.3 mph 93 % 0.00 in
03:07 59.2 °F 57.2 °F 29.99 in SW 0.4 mph 2.0 mph 93 % 0.00 in
03:12 59.3 °F 57.3 °F 29.99 in SW 0.2 mph 1.2 mph 93 % 0.00 in
03:17 59.3 °F 57.3 °F 29.99 in WSW 2.5 mph 3.5 mph 93 % 0.00 in
03:22 59.3 °F 57.3 °F 29.99 in WSW 0.1 mph 3.5 mph 93 % 0.00 in
03:27 59.3 °F 57.3 °F 29.99 in WSW 1.2 mph 2.0 mph 93 % 0.00 in
03:32 59.3 °F 57.3 °F 30.00 in West 0.8 mph 3.5 mph 93 % 0.00 in
03:37 59.2 °F 56.9 °F 30.00 in West 1.8 mph 3.5 mph 92 % 0.00 in
03:43 59.2 °F 56.6 °F 30.00 in West 2.3 mph 4.6 mph 91 % 0.00 in
03:48 59.1 °F 56.2 °F 30.00 in NW 0.9 mph 3.5 mph 90 % 0.00 in
03:53 59.1 °F 55.9 °F 30.00 in WSW 0.2 mph 2.3 mph 89 % 0.00 in
03:58 59.2 °F 55.6 °F 30.00 in West 0.9 mph 3.5 mph 88 % 0.00 in
04:03 59.3 °F 55.1 °F 30.00 in SW 1.9 mph 3.5 mph 86 % 0.00 in
04:08 59.5 °F 55.3 °F 30.00 in West 3.0 mph 6.9 mph 86 % 0.00 in
04:10 59.5 °F 55.0 °F 30.01 in West 1.5 mph 3.5 mph 85 % 0.00 in
04:15 59.7 °F 55.2 °F 30.01 in SW 0.2 mph 1.2 mph 85 % 0.00 in
04:20 59.9 °F 55.4 °F 30.01 in West 1.1 mph 3.5 mph 85 % 0.00 in
04:25 60.0 °F 55.2 °F 30.01 in West 1.3 mph 3.5 mph 84 % 0.00 in
04:30 60.2 °F 55.0 °F 30.01 in WNW 2.0 mph 4.0 mph 83 % 0.00 in
04:36 60.4 °F 54.9 °F 30.01 in West 4.6 mph 6.9 mph 82 % 0.00 in
04:41 60.5 °F 55.0 °F 30.01 in West 2.0 mph 5.0 mph 82 % 0.00 in
04:46 60.6 °F 55.1 °F 30.01 in West 1.0 mph 5.0 mph 82 % 0.00 in
04:51 60.7 °F 55.2 °F 30.01 in West 1.0 mph 5.0 mph 82 % 0.00 in
04:56 60.7 °F 54.8 °F 30.02 in West 2.4 mph 7.0 mph 81 % 0.00 in
04:59 60.7 °F 54.8 °F 30.01 in West 1.2 mph 6.9 mph 81 % 0.00 in
05:04 60.7 °F 54.8 °F 30.01 in West 1.5 mph 3.5 mph 81 % 0.00 in
05:09 60.7 °F 54.8 °F 30.02 in WNW 1.2 mph 3.5 mph 81 % 0.00 in
05:14 60.7 °F 54.8 °F 30.02 in WSW 3.5 mph 5.0 mph 81 % 0.00 in
05:19 60.6 °F 54.7 °F 30.02 in West 2.7 mph 3.5 mph 81 % 0.00 in
05:24 60.6 °F 54.7 °F 30.02 in WSW 1.5 mph 3.5 mph 81 % 0.00 in
05:29 60.6 °F 54.7 °F 30.02 in WNW 0.5 mph 2.3 mph 81 % 0.00 in
05:34 60.6 °F 54.7 °F 30.02 in West 1.5 mph 3.5 mph 81 % 0.00 in
05:39 60.5 °F 54.6 °F 30.02 in WSW 0.6 mph 3.5 mph 81 % 0.00 in
05:45 60.5 °F 55.0 °F 30.02 in WNW 0.8 mph 4.0 mph 82 % 0.00 in
05:50 60.5 °F 55.0 °F 30.02 in WSW 1.9 mph 3.5 mph 82 % 0.00 in
05:55 60.5 °F 55.0 °F 30.03 in West 2.2 mph 3.0 mph 82 % 0.00 in
06:00 60.4 °F 54.9 °F 30.03 in WNW 0.1 mph 2.3 mph 82 % 0.00 in
06:05 60.4 °F 54.9 °F 30.03 in WNW 1.1 mph 7.0 mph 82 % 0.00 in
06:10 60.4 °F 55.2 °F 30.03 in WSW 2.0 mph 3.5 mph 83 % 0.00 in
06:15 60.5 °F 55.3 °F 30.03 in NW 1.5 mph 4.0 mph 83 % 0.00 in
06:20 60.6 °F 55.4 °F 30.03 in SW 0.6 mph 3.5 mph 83 % 0.00 in
06:25 60.7 °F 55.5 °F 30.03 in WNW 0.8 mph 5.0 mph 83 % 0.00 in
06:30 60.8 °F 55.6 °F 30.03 in WNW 1.3 mph 5.0 mph 83 % 0.00 in
06:35 61.0 °F 55.8 °F 30.03 in NW 2.8 mph 5.8 mph 83 % 0.00 in
06:40 61.2 °F 56.0 °F 30.03 in WNW 3.3 mph 5.8 mph 83 % 0.00 in
06:45 61.4 °F 56.2 °F 30.03 in SW 2.3 mph 5.8 mph 83 % 0.00 in
06:51 61.7 °F 56.5 °F 30.04 in WNW 1.0 mph 5.0 mph 83 % 0.00 in
06:56 62.1 °F 56.5 °F 30.04 in WNW 1.0 mph 7.0 mph 82 % 0.00 in
07:01 62.5 °F 56.6 °F 30.04 in WNW 1.1 mph 9.2 mph 81 % 0.00 in
07:06 62.9 °F 57.0 °F 30.04 in NW 2.0 mph 5.8 mph 81 % 0.00 in
07:11 63.3 °F 56.7 °F 30.04 in NW 2.2 mph 8.1 mph 79 % 0.00 in
07:16 63.6 °F 57.3 °F 30.04 in WNW 3.6 mph 9.2 mph 80 % 0.00 in
07:21 63.9 °F 57.3 °F 30.05 in WNW 1.5 mph 5.8 mph 79 % 0.00 in
07:26 64.3 °F 57.6 °F 30.05 in WNW 2.3 mph 4.6 mph 79 % 0.00 in
07:31 64.5 °F 57.8 °F 30.05 in NW 0.8 mph 3.5 mph 79 % 0.00 in
07:36 64.7 °F 57.3 °F 30.05 in WNW 2.8 mph 5.8 mph 77 % 0.00 in
07:41 64.9 °F 57.9 °F 30.05 in WNW 1.3 mph 3.5 mph 78 % 0.00 in
07:46 64.9 °F 57.5 °F 30.06 in NW 1.9 mph 3.5 mph 77 % 0.00 in
07:51 64.8 °F 57.1 °F 30.05 in NW 1.2 mph 6.9 mph 76 % 0.00 in
07:56 64.8 °F 57.1 °F 30.06 in West 0.9 mph 6.0 mph 76 % 0.00 in
08:01 64.7 °F 57.0 °F 30.06 in West 0.6 mph 3.5 mph 76 % 0.00 in
08:02 64.7 °F 57.0 °F 30.06 in North 0.7 mph 4.0 mph 76 % 0.00 in
08:07 64.6 °F 57.2 °F 30.06 in NNE 0.9 mph 4.6 mph 77 % 0.00 in
08:12 64.5 °F 56.8 °F 30.06 in West 2.6 mph 6.9 mph 76 % 0.00 in
08:17 64.5 °F 57.1 °F 30.06 in West 2.3 mph 6.9 mph 77 % 0.00 in
08:22 64.5 °F 57.1 °F 30.06 in WNW 1.3 mph 4.0 mph 77 % 0.00 in
08:27 64.4 °F 57.0 °F 30.07 in WNW 1.3 mph 3.5 mph 77 % 0.00 in
08:32 64.4 °F 57.0 °F 30.07 in WNW 3.5 mph 4.6 mph 77 % 0.00 in
08:37 64.5 °F 57.1 °F 30.07 in NW 4.2 mph 6.0 mph 77 % 0.00 in
08:42 64.6 °F 57.2 °F 30.07 in West 3.8 mph 5.8 mph 77 % 0.00 in
08:47 64.7 °F 57.0 °F 30.07 in West 2.3 mph 4.6 mph 76 % 0.00 in
08:52 64.8 °F 57.4 °F 30.07 in West 2.6 mph 3.5 mph 77 % 0.00 in
08:57 65.0 °F 57.6 °F 30.07 in WNW 0.6 mph 2.3 mph 77 % 0.00 in
09:02 65.0 °F 57.2 °F 30.07 in WNW 2.8 mph 5.0 mph 76 % 0.00 in
09:07 65.1 °F 57.0 °F 30.07 in West 1.7 mph 4.6 mph 75 % 0.00 in
09:12 65.2 °F 57.4 °F 30.07 in West 3.2 mph 6.0 mph 76 % 0.00 in
09:17 65.3 °F 57.2 °F 30.07 in WNW 1.8 mph 4.6 mph 75 % 0.00 in
09:22 65.5 °F 57.0 °F 30.07 in West 4.1 mph 6.9 mph 74 % 0.00 in
09:27 65.6 °F 57.8 °F 30.07 in NW 1.2 mph 4.6 mph 76 % 0.00 in
09:32 65.8 °F 57.7 °F 30.07 in WNW 4.4 mph 5.8 mph 75 % 0.00 in
09:38 66.1 °F 57.9 °F 30.06 in WNW 1.9 mph 5.8 mph 75 % 0.00 in
09:43 66.4 °F 57.9 °F 30.07 in WNW 1.3 mph 4.6 mph 74 % 0.00 in
09:48 66.8 °F 58.2 °F 30.07 in WNW 2.9 mph 7.0 mph 74 % 0.00 in
09:53 67.7 °F 59.1 °F 30.07 in NW 3.5 mph 5.8 mph 74 % 0.00 in
09:58 68.6 °F 59.6 °F 30.07 in NW 4.2 mph 8.1 mph 73 % 0.00 in
10:03 69.4 °F 58.4 °F 30.07 in WNW 3.5 mph 7.0 mph 68 % 0.00 in
10:04 69.7 °F 59.1 °F 30.07 in NW 1.9 mph 6.9 mph 69 % 0.00 in
10:09 70.7 °F 59.6 °F 30.07 in WSW 3.2 mph 4.6 mph 68 % 0.00 in
10:14 71.7 °F 61.0 °F 30.07 in SSW 2.0 mph 3.5 mph 69 % 0.00 in
10:19 72.6 °F 61.0 °F 30.07 in WNW 1.7 mph 6.0 mph 67 % 0.00 in
10:24 73.2 °F 59.8 °F 30.06 in WNW 2.4 mph 5.0 mph 63 % 0.00 in
10:29 73.9 °F 61.0 °F 30.06 in SW 0.6 mph 5.8 mph 64 % 0.00 in
10:34 74.7 °F 60.4 °F 30.06 in West 1.6 mph 5.0 mph 61 % 0.00 in
10:40 75.3 °F 60.5 °F 30.06 in WSW 2.1 mph 3.5 mph 60 % 0.00 in
10:45 75.8 °F 60.0 °F 30.06 in West 3.1 mph 5.8 mph 58 % 0.00 in
10:50 76.3 °F 58.9 °F 30.06 in WNW 1.1 mph 2.3 mph 55 % 0.00 in
10:55 76.9 °F 62.9 °F 30.06 in WSW 3.0 mph 4.0 mph 62 % 0.00 in
11:00 77.5 °F 60.1 °F 30.06 in WNW 2.7 mph 5.8 mph 55 % 0.00 in
11:05 77.7 °F 61.3 °F 30.06 in WSW 3.0 mph 4.0 mph 57 % 0.00 in
11:10 78.1 °F 60.6 °F 30.06 in SW 2.8 mph 3.5 mph 55 % 0.00 in
11:15 78.3 °F 60.3 °F 30.06 in West 3.8 mph 6.9 mph 54 % 0.00 in
11:20 78.4 °F 61.4 °F 30.06 in SSW 1.7 mph 3.5 mph 56 % 0.00 in
11:25 78.5 °F 58.9 °F 30.07 in NNW 2.8 mph 3.5 mph 51 % 0.00 in
11:30 78.7 °F 59.6 °F 30.07 in West 5.0 mph 8.1 mph 52 % 0.00 in
11:35 79.1 °F 60.0 °F 30.07 in West 2.9 mph 5.8 mph 52 % 0.00 in
11:40 79.3 °F 61.2 °F 30.07 in WNW 2.6 mph 8.1 mph 54 % 0.00 in
11:45 79.5 °F 58.1 °F 30.07 in SW 3.8 mph 4.6 mph 48 % 0.00 in
11:50 79.8 °F 60.1 °F 30.07 in WNW 1.3 mph 3.5 mph 51 % 0.00 in
11:55 79.8 °F 57.8 °F 30.07 in WSW 5.7 mph 13.0 mph 47 % 0.00 in
12:00 80.0 °F 58.5 °F 30.07 in WSW 4.4 mph 8.1 mph 48 % 0.00 in
12:05 80.3 °F 60.0 °F 30.07 in West 1.9 mph 3.5 mph 50 % 0.00 in
12:10 80.3 °F 56.4 °F 30.07 in West 2.0 mph 10.4 mph 44 % 0.00 in
12:15 80.3 °F 56.4 °F 30.07 in NW 3.5 mph 6.0 mph 44 % 0.00 in
12:20 80.3 °F 57.6 °F 30.08 in WNW 0.3 mph 1.2 mph 46 % 0.00 in
12:25 80.7 °F 58.6 °F 30.08 in NW 1.6 mph 5.8 mph 47 % 0.00 in
12:30 80.8 °F 58.7 °F 30.07 in SSW 3.5 mph 11.5 mph 47 % 0.00 in
12:36 80.8 °F 56.9 °F 30.07 in SW 3.0 mph 8.0 mph 44 % 0.00 in
12:41 81.0 °F 58.9 °F 30.07 in West 2.7 mph 6.0 mph 47 % 0.00 in
12:46 80.9 °F 56.3 °F 30.07 in WNW 2.1 mph 4.0 mph 43 % 0.00 in
12:51 81.2 °F 59.6 °F 30.07 in WNW 3.0 mph 6.0 mph 48 % 0.00 in
12:56 81.3 °F 56.7 °F 30.07 in West 3.7 mph 5.8 mph 43 % 0.00 in
13:01 81.2 °F 57.2 °F 30.07 in SSW 2.2 mph 3.5 mph 44 % 0.00 in
13:06 81.5 °F 58.1 °F 30.07 in West 3.2 mph 5.8 mph 45 % 0.00 in
13:11 81.6 °F 54.9 °F 30.07 in WSW 5.1 mph 9.2 mph 40 % 0.00 in
13:16 81.5 °F 55.5 °F 30.07 in WSW 2.1 mph 4.6 mph 41 % 0.00 in
13:21 81.7 °F 58.3 °F 30.07 in NW 4.7 mph 9.2 mph 45 % 0.00 in
13:26 81.8 °F 56.5 °F 30.07 in NW 4.0 mph 8.1 mph 42 % 0.00 in
13:31 81.9 °F 56.6 °F 30.07 in SW 4.3 mph 5.8 mph 42 % 0.00 in
13:36 82.0 °F 56.0 °F 30.07 in SW 7.3 mph 10.4 mph 41 % 0.00 in
13:41 82.0 °F 56.6 °F 30.07 in SW 5.4 mph 9.2 mph 42 % 0.00 in
13:46 81.9 °F 55.2 °F 30.08 in North 4.1 mph 11.5 mph 40 % 0.00 in
13:51 81.9 °F 56.6 °F 30.07 in SSW 3.3 mph 5.8 mph 42 % 0.00 in
13:56 81.8 °F 57.8 °F 30.07 in WSW 2.5 mph 5.8 mph 44 % 0.00 in
14:01 82.0 °F 60.4 °F 30.07 in SW 4.2 mph 6.0 mph 48 % 0.00 in
14:06 82.2 °F 58.1 °F 30.07 in North 2.8 mph 4.6 mph 44 % 0.00 in
14:11 82.3 °F 55.6 °F 30.07 in SW 5.6 mph 10.4 mph 40 % 0.00 in
14:16 82.3 °F 57.6 °F 30.06 in WNW 3.6 mph 6.9 mph 43 % 0.00 in
14:21 82.4 °F 57.0 °F 30.06 in West 5.3 mph 9.2 mph 42 % 0.00 in
14:26 82.5 °F 57.7 °F 30.06 in West 4.7 mph 8.1 mph 43 % 0.00 in
14:31 82.5 °F 58.4 °F 30.06 in West 4.2 mph 5.8 mph 44 % 0.00 in
14:36 82.6 °F 58.5 °F 30.06 in WNW 3.9 mph 10.4 mph 44 % 0.00 in
14:37 82.6 °F 58.5 °F 30.06 in WNW 3.1 mph 10.4 mph 44 % 0.00 in
14:42 82.8 °F 58.0 °F 30.06 in WSW 0.5 mph 3.5 mph 43 % 0.00 in
14:47 82.9 °F 56.8 °F 30.05 in NW 4.6 mph 6.9 mph 41 % 0.00 in
14:52 83.1 °F 59.6 °F 30.05 in NNW 3.1 mph 7.0 mph 45 % 0.00 in
14:57 83.3 °F 57.8 °F 30.05 in WNW 5.1 mph 10.4 mph 42 % 0.00 in
15:02 83.5 °F 56.6 °F 30.05 in NW 2.8 mph 5.8 mph 40 % 0.00 in
15:07 83.7 °F 59.5 °F 30.05 in SW 0.8 mph 2.3 mph 44 % 0.00 in
15:12 83.9 °F 59.0 °F 30.05 in WNW 1.8 mph 5.8 mph 43 % 0.00 in
15:17 84.1 °F 58.5 °F 30.05 in SW 3.5 mph 10.0 mph 42 % 0.00 in
15:22 84.2 °F 57.9 °F 30.05 in SW 3.1 mph 5.0 mph 41 % 0.00 in
15:27 84.2 °F 57.3 °F 30.05 in West 0.1 mph 1.2 mph 40 % 0.00 in
15:32 84.3 °F 55.9 °F 30.04 in South 3.5 mph 8.1 mph 38 % 0.00 in
15:37 84.2 °F 57.3 °F 30.04 in West 3.6 mph 5.0 mph 40 % 0.00 in
15:42 84.0 °F 57.1 °F 30.04 in SSW 2.8 mph 5.0 mph 40 % 0.00 in
15:47 84.0 °F 57.8 °F 30.04 in SSW 2.9 mph 4.0 mph 41 % 0.00 in
15:52 84.0 °F 55.7 °F 30.04 in WSW 3.2 mph 5.8 mph 38 % 0.00 in
15:57 83.9 °F 55.6 °F 30.04 in SSW 2.0 mph 3.5 mph 38 % 0.00 in
16:02 83.8 °F 57.6 °F 30.04 in WNW 2.2 mph 4.0 mph 41 % 0.00 in
16:07 83.7 °F 59.5 °F 30.04 in WSW 0.5 mph 5.8 mph 44 % 0.00 in
16:12 83.6 °F 58.1 °F 30.04 in WSW 3.9 mph 4.0 mph 42 % 0.00 in
16:17 83.6 °F 55.3 °F 30.04 in SSW 3.2 mph 5.8 mph 38 % 0.00 in
16:20 83.6 °F 56.0 °F 30.04 in SSW 4.5 mph 6.0 mph 39 % 0.00 in
16:25 83.4 °F 55.1 °F 30.03 in SW 5.3 mph 8.1 mph 38 % 0.00 in
16:30 83.4 °F 55.1 °F 30.03 in West 5.1 mph 7.0 mph 38 % 0.00 in
16:36 83.3 °F 55.0 °F 30.03 in SW 5.0 mph 9.0 mph 38 % 0.00 in
16:41 83.3 °F 54.3 °F 30.03 in SW 3.0 mph 6.0 mph 37 % 0.00 in
16:46 83.4 °F 55.1 °F 30.03 in WSW 2.0 mph 6.0 mph 38 % 0.00 in
16:51 83.3 °F 55.1 °F 30.03 in SW 2.0 mph 5.0 mph 38 % 0.00 in
16:56 83.3 °F 55.0 °F 30.03 in WSW 3.0 mph 7.0 mph 38 % 0.00 in
17:01 83.4 °F 55.1 °F 30.03 in SW 4.9 mph 6.9 mph 38 % 0.00 in
17:06 83.2 °F 54.2 °F 30.03 in WSW 3.8 mph 6.9 mph 37 % 0.00 in
17:11 83.0 °F 54.8 °F 30.03 in WSW 3.7 mph 4.6 mph 38 % 0.00 in
17:16 82.8 °F 54.6 °F 30.03 in West 3.5 mph 6.0 mph 38 % 0.00 in
17:21 82.6 °F 55.1 °F 30.03 in West 3.4 mph 4.6 mph 39 % 0.00 in
17:26 82.4 °F 55.0 °F 30.03 in Calm   1.2 mph 39 % 0.00 in
17:31 82.3 °F 54.9 °F 30.03 in WSW 4.0 mph 8.1 mph 39 % 0.00 in
17:36 82.0 °F 53.9 °F 30.03 in SSW 2.8 mph 4.6 mph 38 % 0.00 in
17:41 81.7 °F 53.6 °F 30.03 in NW 2.6 mph 4.0 mph 38 % 0.00 in
17:46 81.5 °F 54.2 °F 30.03 in West 0.2 mph 2.3 mph 39 % 0.00 in
17:51 81.2 °F 53.9 °F 30.03 in WSW 2.9 mph 4.6 mph 39 % 0.00 in
17:53 81.1 °F 55.2 °F 30.03 in Calm   1.2 mph 41 % 0.00 in
17:58 80.8 °F 54.9 °F 30.04 in WSW 4.8 mph 8.1 mph 41 % 0.00 in
18:03 80.5 °F 54.6 °F 30.03 in WSW 0.7 mph 2.3 mph 41 % 0.00 in
18:08 80.3 °F 54.5 °F 30.03 in WSW 0.5 mph 5.8 mph 41 % 0.00 in
18:13 80.1 °F 54.9 °F 30.03 in WNW 2.0 mph 4.6 mph 42 % 0.00 in
18:18 79.9 °F 52.7 °F 30.03 in SW 2.5 mph 3.5 mph 39 % 0.00 in
18:23 79.7 °F 54.6 °F 30.03 in WSW 2.1 mph 3.5 mph 42 % 0.00 in
18:34 79.4 °F 53.6 °F 30.03 in WSW 2.2 mph 3.5 mph 41 % 0.00 in
18:39 79.3 °F 53.6 °F 30.03 in SW 2.5 mph 3.5 mph 41 % 0.00 in
18:44 79.1 °F 54.0 °F 30.03 in SW 1.3 mph 2.3 mph 42 % 0.00 in
18:49 78.9 °F 53.9 °F 30.03 in West 0.7 mph 3.5 mph 42 % 0.00 in
18:54 78.8 °F 54.4 °F 30.04 in West 0.2 mph 2.3 mph 43 % 0.00 in
18:59 78.7 °F 54.3 °F 30.03 in Calm   2.3 mph 43 % 0.00 in
19:04 78.5 °F 54.1 °F 30.04 in Calm     43 % 0.00 in
19:09 78.2 °F 57.5 °F 30.04 in SSW 0.2 mph 3.5 mph 49 % 0.00 in
19:14 77.8 °F 58.8 °F 30.04 in ENE 1.4 mph 3.5 mph 52 % 0.00 in
19:20 77.2 °F 58.2 °F 30.04 in SSE 0.2 mph 3.5 mph 52 % 0.00 in
19:25 76.6 °F 58.7 °F 30.04 in SSE 0.5 mph 1.2 mph 54 % 0.00 in
19:30 76.3 °F 58.9 °F 30.04 in West 1.8 mph 4.6 mph 55 % 0.00 in
19:31 76.3 °F 58.9 °F 30.04 in South 1.0 mph 5.0 mph 55 % 0.00 in
19:36 75.9 °F 58.6 °F 30.04 in South 1.0 mph 5.0 mph 55 % 0.00 in
19:41 75.5 °F 58.2 °F 30.04 in South 2.0 mph 9.0 mph 55 % 0.00 in
19:46 75.1 °F 58.3 °F 30.04 in SSW 1.0 mph 3.0 mph 56 % 0.00 in
19:50 74.7 °F 58.0 °F 30.04 in SE 2.3 mph 4.0 mph 56 % 0.00 in
19:55 74.2 °F 58.0 °F 30.04 in SSW 0.5 mph 1.2 mph 57 % 0.00 in
20:00 73.8 °F 58.1 °F 30.04 in SE 1.4 mph 3.5 mph 58 % 0.00 in
20:05 73.4 °F 57.7 °F 30.04 in South 0.6 mph 3.5 mph 58 % 0.00 in
20:10 73.0 °F 57.8 °F 30.04 in SSE 0.7 mph 2.0 mph 59 % 0.00 in
20:15 72.6 °F 57.9 °F 30.04 in SSW 2.5 mph 3.5 mph 60 % 0.00 in
20:20 72.3 °F 57.6 °F 30.04 in SSW 0.6 mph 3.5 mph 60 % 0.00 in
20:25 72.0 °F 57.4 °F 30.04 in South 1.2 mph 2.3 mph 60 % 0.00 in
20:26 72.0 °F 57.4 °F 30.04 in South 1.8 mph 3.5 mph 60 % 0.00 in
20:31 71.7 °F 57.5 °F 30.04 in SSW 1.8 mph 3.5 mph 61 % 0.00 in
20:36 71.3 °F 57.6 °F 30.05 in South 0.3 mph 2.3 mph 62 % 0.00 in
20:41 71.1 °F 57.4 °F 30.05 in SSW 0.4 mph 2.3 mph 62 % 0.00 in
20:46 70.8 °F 57.6 °F 30.05 in SSW 1.2 mph 3.5 mph 63 % 0.00 in
20:51 70.5 °F 57.7 °F 30.04 in SW 0.9 mph 3.5 mph 64 % 0.00 in
20:56 70.3 °F 57.5 °F 30.05 in SW 1.4 mph 3.5 mph 64 % 0.00 in
21:01 70.1 °F 57.4 °F 30.05 in SW 0.4 mph 1.2 mph 64 % 0.00 in
21:06 69.9 °F 57.6 °F 30.05 in SW 0.7 mph 2.3 mph 65 % 0.00 in
21:11 69.6 °F 57.3 °F 30.05 in SW 0.1 mph 1.2 mph 65 % 0.00 in
21:16 69.4 °F 57.5 °F 30.06 in WSW 0.6 mph 1.2 mph 66 % 0.00 in
21:21 69.3 °F 57.5 °F 30.05 in SW 1.0 mph 2.3 mph 66 % 0.00 in
21:23 69.2 °F 57.4 °F 30.05 in SW 0.4 mph 1.2 mph 66 % 0.00 in
21:28 69.1 °F 57.7 °F 30.05 in WSW 1.1 mph 3.5 mph 67 % 0.00 in
21:33 68.9 °F 57.5 °F 30.05 in SW 1.6 mph 3.5 mph 67 % 0.00 in
21:38 68.8 °F 57.4 °F 30.05 in SSW 0.4 mph 2.3 mph 67 % 0.00 in
21:43 68.6 °F 57.2 °F 30.06 in SSW 0.3 mph 1.2 mph 67 % 0.00 in
21:48 68.5 °F 57.5 °F 30.06 in SSW 0.2 mph 2.3 mph 68 % 0.00 in
21:53 68.4 °F 57.4 °F 30.06 in SSW 0.3 mph 1.2 mph 68 % 0.00 in
21:58 68.3 °F 57.3 °F 30.06 in SSE 0.2 mph 3.5 mph 68 % 0.00 in
22:03 68.2 °F 57.2 °F 30.06 in Calm   1.2 mph 68 % 0.00 in
22:08 68.1 °F 57.1 °F 30.07 in SSE 0.3 mph 1.2 mph 68 % 0.00 in
22:13 68.1 °F 57.5 °F 30.07 in South 0.2 mph 1.2 mph 69 % 0.00 in
22:19 68.1 °F 57.5 °F 30.06 in South 0.2 mph 2.3 mph 69 % 0.00 in
22:24 68.0 °F 57.4 °F 30.06 in Calm   1.2 mph 69 % 0.00 in
22:29 67.9 °F 57.4 °F 30.07 in Calm   1.2 mph 69 % 0.00 in
22:34 67.9 °F 57.4 °F 30.07 in Calm   1.2 mph 69 % 0.00 in
22:39 67.8 °F 57.3 °F 30.07 in SSW 0.1 mph 2.3 mph 69 % 0.00 in
22:44 67.8 °F 57.7 °F 30.07 in Calm   1.2 mph 70 % 0.00 in
22:49 67.7 °F 57.6 °F 30.07 in WSW 0.5 mph 2.3 mph 70 % 0.00 in
22:54 67.7 °F 57.6 °F 30.07 in WSW 0.6 mph 2.3 mph 70 % 0.00 in
22:59 67.6 °F 57.5 °F 30.07 in Calm   1.2 mph 70 % 0.00 in
23:04 67.6 °F 57.5 °F 30.07 in SSW 0.5 mph 1.2 mph 70 % 0.00 in
23:09 67.6 °F 57.5 °F 30.07 in SW 1.1 mph 3.5 mph 70 % 0.00 in
23:14 67.6 °F 57.5 °F 30.08 in SW 0.1 mph 1.2 mph 70 % 0.00 in
23:19 67.6 °F 57.9 °F 30.08 in SW 0.4 mph 1.2 mph 71 % 0.00 in
23:24 67.6 °F 57.9 °F 30.07 in SW 0.3 mph 1.2 mph 71 % 0.00 in
23:29 67.6 °F 57.9 °F 30.08 in SW 0.1 mph 1.2 mph 71 % 0.00 in
23:34 67.5 °F 57.8 °F 30.07 in Calm   1.2 mph 71 % 0.00 in
23:39 67.5 °F 57.8 °F 30.08 in SSW 0.9 mph 2.3 mph 71 % 0.00 in
23:44 67.5 °F 57.8 °F 30.07 in Calm   2.3 mph 71 % 0.00 in
23:49 67.4 °F 57.7 °F 30.08 in SW 0.2 mph 1.2 mph 71 % 0.00 in
23:54 67.4 °F 57.7 °F 30.08 in SW 0.1 mph 1.2 mph 71 % 0.00 in
23:55 67.4 °F 57.7 °F 30.08 in Calm   1.2 mph 71 % 0.00 in
Crab Meadow Weather
Compliments of Weather Underground - 3 mb

Script developed by  Jim McMurry - jmcmurry@mwt.net Adapted for the template by  Wim van der Kuil - Leuven-Template.eu

Recycling: An estimated 80,000,000 Hershey's Kisses are wrapped each day, using enough aluminum foil to cover over 50 acres of space -- that's almost 40 football fields. All that foil is recyclable, but not many people realize it.